10h08 EDT


 

Suivi/Infos de l'aéroport


-ou-


 

Suivi des vols en temps réelTradewind #590

Thumbnail
Tradewind 590
GPD590 · "Goodspeed" (tous les vols)
Tweed-New Haven ()
Nantucket Memorial ()
09h49 EDT
10h23 EDT
Prévu: 08h30 EDT
Prévu: 09h06 EDT
20 min
14 min
Durée: 34 minutes
mardi, 2 septembre 2014
Statut En vol (96 km parcouru; reste 141 km)
Avion Pilatus PC-12 (monoturbopropulseur) (PC12/G – photos)
Vitesse 274 kts (plan de vol: 240 kts) (graphique)
Altitude 9.000 Pieds (plan de vol: 9.000 Pieds) (graphique)
Distance En ligne droite 237 km    Prévue 249 km
Route MAD V475 V188 GON V58 NEWBE DEEPO (Décoder)
JOURNAL DE L'ACTIVITE
Vous voulez une recherche complète sur l'historique de GPD590 depuis 1998? Achetez maintenant. Recevez-le dans l'heure.
Date Avion Provenance Destination Départ Arrivée Durée
02-09-2014 PC12/GTweed-New Haven ()Nantucket Memorial () 09h49 EDT 10h23 EDT En vol
02-09-2014 PC12Teterboro ()Nantucket Memorial () 08h41 EDT 09h37 EDT Prévue
02-09-2014 PC12/GNantucket Memorial ()Waterbury-Oxford () 07h21 EDT 08h13 EDT 0:52
02-09-2014 PC12/GWaterbury-Oxford ()Nantucket Memorial () 05h45 EDT 06h23 EDT 0:38
01-09-2014 PC12/GNantucket Memorial ()Teterboro () 20h12 EDT 21h03 EDT 0:51
01-09-2014 PC12/GTeterboro ()Nantucket Memorial () 18h31 EDT 19h15 EDT 0:44
01-09-2014 PC12/GNantucket Memorial ()Teterboro () 16h58 EDT 17h46 EDT 0:48
01-09-2014 PC12/TWestchester County ()Nantucket Memorial () 14h57 EDT 15h33 EDT 0:36
01-09-2014 PC12/GNantucket Memorial ()Teterboro () 13h18 EDT 14h07 EDT 0:49
01-09-2014 PC12/GTeterboro ()Nantucket Memorial () 11h47 EDT 12h30 EDT 0:42
01-09-2014 PC12/GNantucket Memorial ()Teterboro () 09h53 EDT 10h44 EDT 0:51
01-09-2014 PC12/GGroton-New London ()Nantucket Memorial () 08h18 EDT 08h44 EDT (?) 0:25
31-08-2014 PC12/GWestchester County ()Waterbury-Oxford () 20h11 EDT 20h26 EDT 0:15
31-08-2014 PC12/GNantucket Memorial ()Westchester County () 18h05 EDT 19h22 EDT 1:17
31-08-2014 PC12/GInt'l Logan ()Nantucket Memorial () 11h41 EDT 12h09 EDT 0:28
31-08-2014 PC12/GNantucket Memorial ()Int'l Logan () 10h22 EDT 11h09 EDT 0:47
31-08-2014 PC12/GWestchester County ()Nantucket Memorial () 09h12 EDT 10h00 EDT 0:48
30-08-2014 PC12/GNantucket Memorial ()Westchester County () 14h00 EDT 14h48 EDT 0:48
30-08-2014 PC12/GWestchester County ()Nantucket Memorial () 08h59 EDT 09h41 EDT 0:41
30-08-2014 PC12/GWaterbury-Oxford ()Westchester County () 07h47 EDT 07h53 EDT 0:05
29-08-2014 PC12/GNantucket Memorial ()Waterbury-Oxford () 20h29 EDT 21h03 EDT 0:34
29-08-2014 PC12Teterboro ()Nantucket Memorial () 19h07 EDT 19h49 EDT 0:42
29-08-2014 PC12/GNantucket Memorial ()Teterboro () 17h36 EDT 18h24 EDT 0:48
29-08-2014 PC12/GTeterboro ()Nantucket Memorial () 15h59 EDT 16h45 EDT 0:45
29-08-2014 PC12/GNantucket Memorial ()Teterboro () 14h02 EDT 14h52 EDT 0:50
28-08-2014 PC12/GNantucket Memorial ()Waterbury-Oxford () 20h06 EDT 20h45 EDT 0:39
28-08-2014 PC12/GNantucket Memorial ()Westchester County () 17h18 EDT 18h02 EDT 0:44
28-08-2014 UnknownR BDR 147 5Nantucket Memorial () 19h47 UTC 16h30 EDT 0:43
28-08-2014 PC12Nantucket Memorial ()Westchester County () 14h09 EDT 14h59 EDT 0:50
28-08-2014 PC12Westchester County ()Nantucket Memorial () 12h03 EDT 13h10 EDT 1:06
28-08-2014 PC12/GNantucket Memorial ()Westchester County () 11h04 EDT 11h31 EDT 0:26
28-08-2014 PC12/GGroton-New London ()Nantucket Memorial () 09h27 EDT 09h57 EDT 0:30
27-08-2014 PC12Nantucket Memorial ()Westchester County () 12h18 EDT 13h02 EDT 0:44
27-08-2014 PC12/GGroton-New London ()Nantucket Memorial () 10h34 EDT 11h48 EDT 1:13
25-08-2014 PC12Teterboro ()Nantucket Memorial () 17h01 EDT 17h47 EDT 0:46
25-08-2014 PC12Cape Cod Coast Guard Air Station ()Teterboro () 10h21 EDT 11h04 EDT 0:43
25-08-2014 PC12/GTeterboro ()Nantucket Memorial () 08h23 EDT 09h26 EDT 1:03
25-08-2014 PC12/GNantucket Memorial ()Teterboro () 07h06 EDT 07h52 EDT 0:46
25-08-2014 PC12Int'l Bradley ()Nantucket Memorial () 05h37 EDT 06h54 EDT 1:17
24-08-2014 PC12Nantucket Memorial ()Teterboro () 20h01 EDT 20h48 EDT 0:47
24-08-2014 PC12Nantucket Memorial ()Teterboro () 16h49 EDT 17h37 EDT 0:48
24-08-2014 PC12Teterboro ()Nantucket Memorial () 15h03 EDT 15h47 EDT 0:43
22-08-2014 PC12/GTeterboro ()Nantucket Memorial () 19h17 EDT 20h14 EDT 0:57
22-08-2014 PC12Nantucket Memorial ()Teterboro () 17h22 EDT 18h22 EDT 1:00
22-08-2014 PC12/GTeterboro ()Nantucket Memorial () 15h59 EDT 16h51 EDT 0:51
22-08-2014 PC12/GNantucket Memorial ()Teterboro () 13h59 EDT 15h00 EDT 1:01
22-08-2014 PC12/GTeterboro ()Nantucket Memorial () 12h13 EDT 13h13 EDT 1:00
22-08-2014 PC12/GNantucket Memorial ()Teterboro () 10h19 EDT 11h28 EDT 1:09
22-08-2014 PC12/GTeterboro ()Nantucket Memorial () 08h43 EDT 09h43 EDT 1:00
22-08-2014 PC12/GWaterbury-Oxford ()Teterboro () 07h26 EDT 07h59 EDT 0:32
21-08-2014 PC12/GNantucket Memorial ()Waterbury-Oxford () 20h25 EDT 21h11 EDT 0:46
21-08-2014 PC12/GTeterboro ()Nantucket Memorial () 19h21 EDT 20h38 EDT (?) 1:17
21-08-2014 PC12/GNantucket Memorial ()Teterboro () 17h37 EDT 18h25 EDT 0:47
21-08-2014 PC12/GTeterboro ()Nantucket Memorial () 15h57 EDT 16h55 EDT 0:58
20-08-2014 PC12/GNantucket Memorial ()Waterbury-Oxford () 10h19 EDT 10h57 EDT 0:38
20-08-2014 PC12/GWestchester County ()Nantucket Memorial () 09h03 EDT 09h49 EDT 0:45
20-08-2014 PC12/GWaterbury-Oxford ()Westchester County () 07h50 EDT 08h07 EDT 0:17
Les membres inscrits (l'inscription est gratuite et facile!) voient 4 months d'historique. S'inscrire